RH
3 3 2 2 2 2 2 1 2 1 1 1 1 1 1 1 1 1 0 1 2 2 3 3 3 3 3 2 2 2 2 3 1 3 1 2 2 1 2 2 2 2 4 7 16 29 37 41 35 34 42 46 55 59 67 70 62 69 72 64 71 78 80 86 80 67 62 46 30 29 30 22 16 17 18 28 34 40 47 45 49 51 51 34 5 3 7 6
3 3 2 2 2 2 1 2 1 1 1 1 1 1 1 1 1 1 1 1 1 2 3 3 4 3 3 2 2 2 2 3 2 2 1 2 2 1 2 1 3 2 4 6 9 20 30 38 36 41 51 46 54 64 68 70 63 64 68 65 68 75 80 79 67 55 57 53 40 31 29 26 20 25 33 37 36 37 44 46 51 48 31 13 2 5 5 6
3 3 3 2 2 2 1 2 1 1 2 1 1 1 1 1 1 1 0 1 1 2 2 3 4 3 4 3 2 3 2 3 2 2 2 2 1 2 2 1 3 1 3 5 7 14 19 29 35 49 60 51 59 69 70 74 68 61 66 69 65 73 76 68 62 51 48 45 35 29 25 23 21 35 48 50 45 38 40 39 38 30 12 4 4 6 4 6
4 3 3 2 2 2 2 2 1 1 2 1 2 1 1 1 1 1 1 1 1 1 2 2 3 3 4 3 3 3 3 3 2 2 1 2 2 2 2 1 2 1 3 4 6 8 12 24 37 55 59 56 66 68 75 77 64 64 68 64 64 76 74 65 66 48 38 41 33 26 25 25 24 36 53 60 57 44 36 32 33 21 4 4 4 4 6 6
4 4 3 3 2 2 2 2 2 2 2 1 2 1 1 1 1 1 1 1 1 1 1 2 3 3 4 3 3 3 3 3 2 3 1 2 2 1 2 1 2 2 3 3 6 7 16 30 38 50 51 61 72 62 72 72 60 71 68 68 77 82 78 71 69 47 32 36 32 29 32 35 33 35 49 67 69 54 36 27 33 23 3 5 5 4 5 5
4 4 4 3 3 3 2 2 2 2 2 2 1 1 1 1 1 1 1 1 1 1 1 2 2 3 4 3 3 3 3 3 3 3 1 2 2 2 2 1 2 2 2 3 6 9 21 36 38 45 55 67 69 57 63 59 60 75 68 70 79 77 75 58 47 40 33 33 34 35 32 28 31 34 42 64 69 51 34 24 27 20 5 5 5 6 6 6
3 4 4 4 3 3 3 2 2 2 2 2 1 2 1 1 1 1 1 1 1 1 1 1 2 3 3 4 4 3 4 3 4 3 2 2 1 2 2 2 2 1 3 2 4 9 15 31 35 42 58 65 58 49 50 47 54 68 64 67 75 78 67 38 32 41 37 33 33 37 35 23 21 29 39 55 57 43 31 24 23 13 5 7 5 6 7 7
2 3 4 4 4 3 3 3 2 2 2 2 2 2 2 2 1 1 1 1 1 1 1 1 1 2 3 3 4 3 4 4 4 4 2 2 2 2 2 2 2 1 3 1 4 5 4 16 27 37 53 57 51 46 46 49 56 64 62 55 55 60 50 35 38 37 30 29 31 37 36 22 13 17 24 34 38 32 22 21 24 14 7 8 5 6 7 7
2 2 3 3 4 4 3 3 3 2 2 2 2 2 2 2 1 1 1 1 1 1 1 1 1 2 3 3 3 3 4 4 4 4 3 2 2 2 2 1 2 2 2 3 3 2 4 8 20 43 57 56 49 45 47 53 64 67 58 47 43 39 34 41 41 26 25 29 32 35 25 14 11 12 13 18 24 23 16 19 23 16 13 11 9 9 5 8
2 2 2 2 3 4 4 4 3 3 2 2 2 2 2 2 2 2 1 1 1 1 1 1 1 1 2 3 3 3 3 4 4 4 4 2 2 2 2 2 2 2 1 3 2 2 5 8 33 61 65 63 53 44 45 49 62 62 52 53 50 35 32 47 45 27 28 30 30 28 15 12 15 12 13 15 16 16 15 19 19 14 15 14 12 10 4 9
2 2 2 2 3 3 5 5 4 3 3 2 2 2 2 2 2 2 2 2 1 1 1 1 1 1 2 2 3 3 2 4 4 4 4 2 2 2 2 2 1 2 2 2 3 3 2 13 55 77 62 58 52 46 48 50 59 52 43 44 34 36 47 49 37 26 31 31 25 21 12 13 18 13 10 13 13 14 15 15 15 12 11 12 12 8 4 8
3 2 2 2 2 3 4 5 5 3 3 3 2 2 2 2 2 2 2 2 2 1 1 1 1 1 1 2 2 3 2 3 4 4 5 3 3 2 2 2 1 2 2 2 3 2 2 8 41 69 62 49 44 49 55 64 68 47 38 40 31 43 52 39 25 24 33 27 19 29 25 15 17 14 6 11 14 15 16 12 13 13 9 9 9 6 5 6
3 3 2 2 2 2 3 4 6 5 4 3 3 2 2 2 2 2 2 2 2 1 1 1 1 1 1 2 2 3 3 3 4 4 4 4 3 2 2 2 1 2 2 3 3 2 4 1 16 47 54 45 46 50 53 69 69 48 57 62 48 47 43 37 32 26 31 24 22 46 47 22 18 21 8 7 13 17 21 16 13 13 11 11 6 5 6 4
4 3 3 3 2 3 2 3 5 5 5 3 3 3 2 3 2 2 2 2 2 1 2 1 1 1 1 1 2 3 3 3 4 4 4 4 3 2 2 2 2 2 2 2 3 2 3 2 5 19 34 46 55 50 49 63 58 57 82 77 63 65 53 44 36 28 32 26 26 51 62 39 27 33 23 10 13 22 28 21 14 11 12 17 10 5 7 5
4 3 3 3 2 3 2 2 4 5 6 4 3 3 2 3 2 2 2 2 2 1 2 1 1 1 1 1 2 2 3 3 3 3 4 4 3 3 2 2 2 2 3 2 3 3 2 3 2 8 27 48 58 57 59 63 55 67 88 75 75 88 70 54 41 31 38 34 27 46 70 62 42 40 36 25 21 27 34 32 25 16 10 16 14 7 8 7
5 4 3 3 2 3 2 2 3 4 5 5 4 3 2 3 2 3 2 2 2 2 2 2 1 1 1 1 1 2 2 3 3 3 4 4 4 3 2 2 2 2 2 2 2 3 2 3 3 6 21 37 51 65 69 64 63 75 81 73 85 95 82 76 59 38 43 44 34 38 54 62 52 44 38 31 29 36 45 42 35 26 13 10 12 9 8 7
5 5 4 4 3 3 3 2 3 3 5 5 5 3 3 3 2 2 3 3 2 2 2 2 2 1 1 1 1 2 2 3 3 3 4 4 4 4 3 2 2 2 2 2 2 2 2 2 4 4 10 28 49 68 71 66 75 85 79 78 90 92 87 91 77 51 44 40 45 52 48 47 50 46 37 29 28 35 41 42 40 37 26 13 10 13 14 12
6 5 5 4 3 3 3 3 3 3 4 5 5 4 3 3 3 3 3 3 2 2 2 2 2 1 1 1 1 1 2 3 3 3 4 4 4 3 3 2 2 2 2 2 2 2 3 1 4 3 4 21 37 57 72 69 79 84 70 77 93 89 88 94 86 67 47 31 42 61 55 47 47 46 42 34 31 31 31 35 38 35 34 26 12 12 15 12
7 6 5 5 4 3 3 3 3 3 3 4 5 5 4 3 3 3 2 3 3 2 2 2 2 2 2 1 1 1 1 2 2 3 3 3 4 3 3 3 2 3 1 3 2 2 4 1 4 4 4 16 19 42 72 70 73 72 56 72 91 89 89 87 87 87 67 41 36 47 57 55 46 46 49 44 36 34 32 34 35 32 34 32 23 15 10 10
9 7 6 5 4 4 3 3 3 3 4 4 5 6 5 3 4 3 3 3 3 3 2 2 2 2 2 2 2 1 1 2 2 3 4 4 4 3 4 3 2 3 2 2 3 2 3 2 3 3 6 12 14 41 69 64 65 64 55 72 81 82 87 77 82 91 71 56 57 59 69 68 52 46 51 50 43 38 36 33 34 35 30 25 28 24 11 11
10 8 7 6 5 5 4 3 3 3 4 4 5 6 5 4 4 3 3 3 3 3 2 2 2 2 2 2 2 1 1 2 2 3 3 3 4 4 3 3 2 2 2 2 2 2 3 3 3 2 8 14 22 52 70 58 60 61 52 64 70 72 79 72 76 86 69 67 85 82 78 78 66 52 46 43 44 40 35 34 39 42 38 32 31 26 13 11
11 10 8 7 6 5 4 4 3 3 4 4 5 6 6 5 4 4 4 4 3 3 3 2 2 2 2 2 1 2 1 1 2 3 3 4 4 4 3 3 3 2 3 2 2 3 2 3 3 1 14 28 32 51 68 59 54 53 44 49 60 64 71 71 74 82 69 64 79 79 71 71 72 67 54 43 44 42 35 41 52 47 42 45 39 29 23 17
11 11 10 8 7 6 5 4 3 3 3 4 6 7 6 5 4 4 4 4 4 3 3 2 2 3 2 2 2 1 1 1 2 2 3 4 3 4 3 3 3 2 3 2 2 3 2 3 4 3 17 38 41 39 54 60 50 47 45 44 52 59 65 73 77 72 62 59 60 59 65 67 65 70 64 51 49 47 37 36 46 47 42 43 41 35 30 19
13 12 12 10 8 7 6 5 4 3 3 5 7 7 7 5 4 5 4 5 4 4 3 2 3 3 2 2 2 2 2 1 2 2 3 4 3 4 4 3 3 3 3 3 2 2 3 2 5 16 20 29 43 38 40 55 53 47 47 47 50 53 54 65 75 67 60 70 65 56 74 76 60 67 73 67 61 54 46 37 37 46 43 36 37 38 30 15
15 13 13 12 10 8 6 6 5 4 3 4 7 9 8 6 5 5 4 4 4 4 4 3 3 3 3 3 2 2 2 1 2 2 2 3 4 3 4 4 3 4 2 3 3 1 7 4 1 22 28 24 39 44 40 47 49 43 39 43 45 42 48 57 63 62 58 73 77 65 75 77 62 66 72 72 70 65 63 54 43 45 43 35 33 33 29 18
17 15 14 13 12 9 7 7 6 5 4 4 7 9 9 7 5 4 5 5 5 5 4 4 3 3 3 2 2 2 1 2 1 2 3 3 4 3 4 4 3 4 2 3 4 4 24 30 7 9 25 32 40 44 43 38 40 43 36 38 40 35 44 49 47 55 57 67 80 72 72 76 66 60 65 74 78 78 79 69 54 50 44 40 34 27 30 28
19 17 15 14 13 10 8 7 7 6 4 5 8 10 11 8 5 5 6 4 4 5 4 4 4 4 4 2 2 2 1 2 1 2 3 2 4 3 4 5 3 4 3 4 6 5 30 53 28 1 13 41 47 42 42 28 26 41 38 36 42 37 40 40 36 49 58 64 73 73 73 77 71 61 66 78 82 83 85 78 69 63 50 40 37 29 24 27
22 19 16 17 15 12 10 7 7 6 4 6 8 11 12 8 5 5 5 6 9 8 5 5 5 3 5 3 2 2 1 2 2 2 3 3 4 4 4 5 2 5 3 5 12 8 17 44 39 8 11 45 50 38 38 24 20 41 45 41 44 42 42 39 35 43 55 63 66 70 71 74 81 78 72 75 76 74 74 75 75 72 60 45 39 35 26 21
24 23 18 19 18 14 11 7 7 7 5 6 9 13 13 9 6 4 4 9 16 15 9 7 7 5 5 3 2 3 2 2 2 2 3 3 4 4 4 4 3 5 4 4 17 20 13 25 40 28 23 48 52 40 39 26 24 43 48 46 43 42 45 42 41 42 47 58 60 65 71 74 84 86 80 81 79 73 68 68 69 66 61 49 40 42 36 23
29 26 20 21 21 16 12 8 7 7 6 7 10 14 14 10 7 5 6 7 15 29 24 12 10 7 6 4 3 3 2 2 3 2 3 3 4 4 4 5 4 5 8 10 16 25 21 15 28 33 27 39 43 36 35 23 25 43 45 43 39 37 45 46 44 45 47 57 62 66 73 78 83 81 78 79 77 75 69 68 74 73 69 58 47 46 39 26
34 31 23 23 23 18 12 9 8 7 7 7 11 16 14 11 7 4 8 7 15 34 32 21 19 11 5 5 5 5 3 2 3 3 3 4 4 4 4 4 4 5 11 14 12 21 32 23 17 18 15 26 32 29 35 31 32 47 50 51 50 44 50 51 46 48 54 62 69 74 74 73 75 76 75 74 75 77 70 68 74 73 74 72 58 46 39 34
41 37 27 25 26 20 12 9 8 7 7 8 12 16 14 12 8 5 12 17 24 34 32 29 25 13 8 7 6 6 4 3 5 4 2 3 5 4 4 5 4 4 6 9 11 17 32 35 25 14 7 20 34 35 43 45 42 48 53 62 64 54 53 56 56 59 62 64 68 70 68 65 64 67 73 74 77 84 81 73 63 53 58 63 54 43 38 38
48 44 33 28 28 21 12 9 10 7 7 9 13 16 14 12 8 6 11 20 36 44 41 42 30 14 13 10 7 9 7 6 6 4 2 2 5 4 3 5 3 5 5 6 16 23 34 46 40 23 11 17 37 47 47 47 48 48 50 61 67 60 57 62 65 65 64 65 65 61 60 62 60 62 70 70 68 75 79 75 71 64 53 41 42 47 39 35
53 51 39 32 30 22 12 10 10 8 8 10 14 16 14 13 9 8 9 23 52 59 47 53 49 31 20 12 10 10 7 10 8 4 5 2 4 5 4 5 3 4 9 13 22 30 39 49 39 23 20 19 27 45 49 49 50 43 40 54 62 59 63 67 67 65 61 60 60 59 58 58 58 60 66 64 59 61 69 79 91 91 63 31 32 43 36 37
57 57 46 39 35 22 12 11 10 9 9 10 16 16 14 14 8 8 11 23 59 70 52 56 64 53 36 17 13 14 7 17 20 7 5 5 3 5 3 5 5 4 12 22 30 37 45 50 34 22 31 26 17 36 53 52 51 42 38 51 55 52 59 63 62 62 60 57 56 56 56 55 59 61 59 58 57 55 60 73 81 75 54 28 24 28 25 35
59 64 54 47 42 24 13 14 10 10 10 11 17 15 13 15 6 11 25 31 54 72 61 58 62 60 52 28 22 27 18 28 40 19 5 6 3 5 5 3 6 4 11 29 38 40 47 53 39 24 31 31 16 32 54 49 46 47 42 47 48 45 49 52 54 56 55 56 57 57 58 59 61 61 58 57 60 58 55 60 61 55 45 31 22 20 20 29
59 69 62 55 49 28 15 17 13 12 13 12 16 14 13 15 7 12 36 50 61 71 68 63 58 57 59 43 33 40 32 35 52 39 19 10 2 5 6 3 7 4 7 30 43 40 41 48 45 33 32 31 17 25 48 46 43 49 45 44 47 45 45 46 49 53 55 55 54 54 57 58 57 59 63 65 64 60 55 52 51 46 39 29 20 17 22 31
58 71 70 63 55 32 17 20 18 15 15 13 14 15 13 15 10 6 32 66 73 66 66 68 60 52 55 51 42 45 42 37 47 48 35 21 6 5 7 3 8 5 4 27 44 43 41 41 44 44 42 42 30 26 44 49 45 49 46 44 47 44 44 47 48 51 57 58 56 56 56 55 54 59 65 65 61 63 63 57 49 41 32 23 16 20 31 39
58 74 75 66 57 35 20 22 21 18 17 13 12 16 14 13 12 7 33 78 87 72 71 73 66 55 51 49 47 49 48 40 41 44 39 28 16 10 8 5 7 6 9 28 43 48 47 39 42 49 47 51 46 35 40 47 46 49 47 43 45 44 43 48 50 52 56 59 60 62 60 58 58 60 64 64 62 69 74 63 48 40 34 23 14 17 27 31
56 76 79 67 57 41 25 22 24 20 15 12 13 16 15 12 10 12 34 73 89 82 77 75 73 65 54 47 44 47 50 44 41 42 38 34 27 19 16 14 12 11 16 30 43 49 48 40 42 50 49 50 51 45 42 44 44 46 47 47 48 47 46 48 52 54 55 57 60 60 57 56 58 59 62 65 64 65 67 60 47 43 44 35 21 14 16 19
56 80 82 65 55 45 30 23 24 22 15 14 15 15 16 13 9 20 50 80 93 88 79 78 85 85 72 55 42 41 47 46 43 44 43 40 36 32 29 25 22 22 25 33 43 47 46 42 43 50 54 51 49 48 48 46 45 45 48 52 51 46 45 47 51 55 58 60 62 59 54 56 60 58 58 61 62 61 61 59 54 49 46 41 28 17 14 18
58 83 86 64 52 46 33 23 24 24 18 15 16 17 17 15 9 22 59 89 94 88 82 78 82 86 80 63 47 42 42 43 46 47 47 44 41 42 42 35 31 35 36 39 46 47 41 41 45 50 57 56 49 48 50 47 46 47 48 52 50 44 46 48 49 52 59 63 61 56 52 56 63 62 58 59 60 61 61 61 61 58 48 38 29 20 20 24
59 83 87 62 47 47 37 24 24 23 19 17 19 20 17 17 14 16 46 84 95 91 88 78 68 70 71 62 53 45 38 40 47 47 46 45 43 46 51 46 42 44 44 43 48 49 42 41 48 50 55 57 49 48 52 50 48 49 50 52 49 46 48 49 48 50 56 60 58 55 54 56 62 62 59 61 62 61 63 60 59 59 50 38 30 25 24 26
59 79 88 58 37 48 42 27 26 23 21 21 20 23 20 18 17 15 33 72 90 93 94 80 62 64 70 64 54 50 43 39 44 45 43 44 45 46 49 50 49 46 43 43 46 48 45 44 46 47 51 55 52 51 55 53 48 45 46 48 48 50 51 50 48 50 55 58 58 61 62 60 63 64 60 60 59 61 67 64 55 54 50 40 34 28 25 24
57 75 92 59 29 46 46 31 31 27 24 26 22 25 24 17 21 26 30 46 62 79 93 85 65 60 68 65 50 49 53 45 41 45 43 41 44 45 45 50 52 46 41 44 47 46 45 46 45 42 45 52 55 56 56 52 47 45 43 41 41 46 50 51 52 53 55 58 60 64 68 66 65 66 63 61 59 59 67 67 59 58 54 42 35 32 29 29
55 70 92 60 22 39 50 36 34 30 26 28 25 25 24 26 43 47 28 22 36 56 72 78 69 55 61 69 53 48 58 51 44 51 47 40 40 42 45 48 51 51 47 45 47 46 44 46 48 45 43 48 54 54 52 48 44 44 45 43 41 45 47 46 51 54 55 59 60 62 66 66 63 61 63 67 66 64 66 65 61 63 60 48 41 39 37 37
56 64 85 63 25 36 50 39 38 37 29 28 28 25 26 42 69 67 32 12 28 49 57 69 77 64 62 72 62 51 53 47 47 56 53 43 40 39 42 45 47 51 52 50 51 50 46 46 49 49 46 48 51 52 54 55 49 47 52 50 48 51 51 48 49 51 54 59 63 65 66 64 60 57 60 65 69 76 79 71 61 60 59 51 45 42 40 38
60 59 76 69 37 37 48 41 41 43 35 35 40 41 44 57 77 84 62 34 32 44 52 67 83 75 67 74 68 55 52 46 49 61 58 48 45 43 43 44 45 47 52 57 57 52 51 51 50 47 47 48 47 46 54 59 56 54 56 54 51 52 52 52 50 50 51 53 59 64 65 65 64 63 66 68 73 86 88 72 59 56 51 46 42 38 36 32
63 56 69 74 48 39 51 46 40 41 38 37 41 47 58 63 62 69 75 65 49 38 42 66 80 67 65 78 71 57 57 52 48 62 68 57 51 53 53 50 49 48 49 56 63 60 55 53 50 48 52 53 46 43 53 60 58 57 58 56 54 51 49 50 50 50 50 51 54 58 58 61 64 65 69 72 74 83 83 72 66 60 49 42 39 37 34 30
66 55 62 77 60 44 53 54 44 44 47 43 40 47 63 72 70 67 71 79 75 53 42 58 65 53 60 78 69 57 63 59 47 55 66 60 55 60 64 60 56 55 54 55 61 62 52 50 56 57 59 59 53 50 55 57 55 56 60 60 57 51 48 50 51 50 50 48 50 54 56 60 63 64 66 67 68 73 76 72 70 62 50 46 47 44 38 31
70 59 57 75 73 50 46 53 50 51 56 52 43 43 52 66 81 84 78 83 87 72 56 57 58 54 63 76 75 70 70 61 51 52 55 57 60 62 69 74 69 67 69 64 60 58 50 46 49 52 55 56 53 49 47 46 49 52 54 54 53 49 48 50 52 54 54 53 53 56 61 66 71 73 69 64 64 67 66 64 65 60 51 48 48 42 33 25
71 65 56 69 80 63 46 47 48 49 57 60 51 43 44 57 73 81 82 88 87 74 66 67 61 54 59 67 73 77 67 49 43 48 49 55 64 66 75 84 79 75 78 75 69 66 62 54 45 49 60 56 44 46 52 52 54 57 55 51 49 51 53 53 55 56 57 59 61 64 69 73 79 82 75 66 66 65 57 54 58 56 47 42 40 34 27 23
Wind_Speed
29 30 30 29 28 27 26 24 23 21 19 18 17 16 15 15 14 13 13 12 10 8 7 5 2 1 3 4 5 5 6 6 4 5 7 8 9 13 15 15 15 14 16 18 20 21 19 17 14 13 15 15 12 13 18 13 8 13 20 17 7 3 2 2 10 7 1 1 2 3 1 1 2 3 4 5 6 7 7 7 7 7 7 6 7 9 10 11
28 30 31 31 30 29 28 26 25 23 22 20 18 17 16 16 15 14 13 14 13 10 9 6 4 2 1 3 4 5 6 5 4 4 5 8 9 12 15 15 15 15 16 17 19 21 20 19 17 14 13 13 12 13 14 8 7 15 20 10 1 1 2 3 7 5 2 1 2 1 1 1 2 2 3 4 6 7 7 7 8 7 6 5 7 9 8 10
27 29 31 32 32 31 30 29 28 26 24 22 21 19 18 18 17 16 14 14 14 12 10 8 6 4 1 2 3 4 5 5 5 4 4 7 8 11 15 16 16 16 17 17 18 20 21 21 19 15 10 10 9 8 4 5 9 13 14 3 2 2 4 4 2 2 1 2 2 1 2 3 4 2 4 5 6 7 7 7 7 6 5 4 6 8 7 8
27 28 29 31 33 33 32 31 30 28 27 25 23 21 20 19 18 17 16 15 15 14 12 10 8 6 4 2 2 3 5 5 6 5 4 6 7 10 14 16 17 17 17 17 16 17 19 18 16 15 7 9 11 5 4 8 9 5 5 5 5 2 3 2 2 2 1 2 3 2 2 3 5 2 3 3 4 6 7 6 6 5 4 4 4 6 7 7
28 28 29 30 32 34 34 33 32 31 29 28 26 24 22 21 20 19 17 16 15 15 14 12 10 8 6 3 2 2 4 4 5 5 3 5 7 9 12 16 18 19 19 17 16 16 18 16 13 16 8 14 15 3 2 7 5 3 8 11 6 5 5 3 3 3 1 1 3 2 2 4 5 2 2 2 3 6 6 5 5 4 3 3 3 4 5 6
29 29 29 30 31 33 34 35 34 33 32 30 29 27 25 23 22 20 19 18 16 16 15 14 12 11 9 6 4 3 2 2 4 4 3 4 6 8 11 16 18 20 19 18 18 16 18 15 14 21 19 19 10 1 5 3 1 3 6 7 4 4 7 4 4 3 2 2 2 2 3 5 6 2 1 2 4 6 6 5 4 3 2 3 2 3 3 4
31 30 30 30 31 32 33 35 36 35 34 32 31 30 28 26 24 22 21 20 18 17 17 16 14 12 11 9 6 4 3 2 3 4 3 4 6 8 11 15 18 20 20 19 19 18 18 17 17 24 27 19 4 6 7 2 3 4 7 4 4 4 5 3 4 3 3 3 2 2 4 5 5 3 0 1 4 6 6 6 5 4 3 2 2 2 2 2
31 32 31 30 31 32 33 34 36 37 36 35 34 32 30 28 27 25 22 21 20 19 18 17 16 15 13 11 8 6 5 3 1 3 3 4 6 8 11 14 19 19 20 20 19 19 18 19 18 20 25 14 7 8 8 6 3 10 10 4 6 5 3 3 4 3 2 2 2 2 3 3 3 3 1 1 3 5 6 5 6 5 4 3 2 2 1 2
30 32 32 32 31 31 32 33 35 37 38 37 36 35 33 31 30 28 25 23 22 21 19 18 18 17 15 13 11 9 7 5 2 3 3 3 5 8 11 14 18 19 21 21 20 19 17 18 16 17 19 8 7 9 17 13 7 15 11 5 6 4 3 3 3 3 2 1 2 1 2 3 2 3 2 2 3 4 5 5 6 6 5 4 3 2 2 2
27 30 32 33 33 32 32 33 34 36 38 38 37 37 35 33 32 30 28 25 24 23 22 20 19 18 17 15 13 10 8 7 4 2 3 2 5 8 10 13 18 20 21 21 20 19 17 19 16 13 13 6 8 9 10 12 12 15 10 6 6 3 3 5 3 3 1 0 1 1 2 3 3 2 1 3 4 5 5 4 6 6 5 4 3 2 2 2
22 26 30 33 34 34 33 33 34 35 37 38 39 38 37 36 34 33 31 28 26 25 24 22 20 20 19 17 15 11 9 8 6 3 2 1 4 7 10 12 16 19 21 21 21 21 19 21 18 8 6 8 11 10 6 9 10 10 11 10 6 3 4 6 3 2 2 1 0 1 2 4 3 2 1 1 2 5 5 4 5 5 4 4 3 3 2 2
19 22 26 31 33 34 34 33 33 34 35 37 39 39 39 38 36 34 33 30 28 27 26 24 22 21 20 19 16 13 13 11 8 6 2 1 3 6 9 12 16 18 21 21 21 20 17 19 21 17 11 12 12 9 8 6 7 9 12 9 6 4 4 4 2 3 2 2 1 2 2 4 3 3 3 2 0 3 4 5 5 4 4 4 4 4 3 3
21 20 22 27 31 33 35 35 34 34 34 36 38 39 39 39 38 36 35 32 31 29 28 26 24 22 22 21 18 16 15 12 10 8 4 2 2 6 8 10 14 17 21 22 21 19 14 15 20 25 22 16 13 12 9 8 11 12 9 7 8 6 4 3 3 3 2 2 2 2 2 2 3 4 4 4 1 1 2 4 4 3 5 5 5 4 4 4
22 22 21 22 28 32 34 35 36 35 34 35 36 38 39 40 39 37 36 34 33 32 30 28 26 24 23 22 21 19 18 14 12 10 7 4 3 5 8 9 12 16 20 20 19 19 15 15 13 18 25 24 13 13 12 13 14 11 11 11 9 6 5 3 3 3 3 2 1 3 4 2 3 4 5 6 4 2 1 2 3 3 4 6 5 4 4 4
24 23 22 21 23 29 33 35 36 36 36 35 35 36 39 40 40 38 37 35 34 34 32 30 28 26 25 24 23 23 20 17 15 12 10 7 4 6 8 9 12 14 18 17 18 20 18 16 10 12 24 27 10 16 15 15 13 12 14 13 8 7 7 4 3 4 4 3 2 3 5 4 2 3 5 7 6 5 2 1 2 3 3 5 5 4 4 4
25 24 23 23 22 25 30 34 36 37 37 36 34 35 36 40 41 40 38 37 36 35 34 32 30 29 27 24 24 25 22 19 18 15 12 9 6 7 8 10 12 14 18 18 19 21 19 17 13 16 22 21 15 14 15 16 12 12 13 11 10 11 11 10 6 6 5 4 4 4 7 7 3 2 4 6 6 6 4 1 0 3 3 3 4 4 3 3
26 25 25 24 23 23 26 32 36 37 37 37 36 34 35 38 41 41 39 37 37 37 35 33 32 30 28 26 27 29 25 22 20 16 14 12 9 9 8 10 12 15 17 17 18 20 20 19 17 18 20 18 21 24 18 19 11 12 11 10 12 13 12 10 8 8 7 5 6 7 8 7 4 4 5 7 6 6 5 4 3 1 1 2 3 3 3 4
26 26 25 25 24 23 24 29 34 37 37 37 36 35 34 36 39 41 41 39 38 37 37 35 33 33 32 31 31 30 27 25 21 18 17 14 12 11 10 11 12 15 17 17 18 20 21 19 16 18 19 20 21 24 18 15 11 10 4 7 13 12 11 9 8 9 7 6 7 10 11 7 6 7 6 8 8 6 6 5 5 4 2 1 1 3 3 5
27 26 26 25 25 24 23 25 31 36 37 38 37 35 35 36 37 41 42 40 38 38 39 37 35 35 33 31 30 29 28 27 24 22 19 17 15 13 12 12 14 16 17 19 22 22 23 19 16 18 19 20 20 21 16 10 11 6 13 5 14 10 12 12 10 10 10 9 8 10 12 11 9 8 8 8 9 9 8 8 5 4 4 4 2 2 2 4
29 27 26 25 25 25 23 24 28 34 37 38 38 35 36 36 37 40 42 40 38 40 40 38 37 36 33 32 32 32 31 29 27 25 22 19 17 16 15 14 14 17 17 19 23 23 24 21 17 16 17 19 17 17 18 14 17 15 18 5 12 10 12 13 11 12 11 8 9 10 11 13 11 8 9 9 9 10 10 10 8 6 5 5 4 1 1 2
30 28 27 26 25 25 24 23 25 31 35 38 38 36 36 36 38 40 40 39 40 41 41 40 38 38 37 36 36 35 32 30 30 27 24 22 20 19 17 16 15 16 17 19 23 24 23 21 17 15 16 18 16 17 15 15 14 13 13 5 13 16 13 12 11 12 10 7 10 12 11 14 14 11 11 11 11 11 11 11 9 7 7 6 6 4 2 2
30 29 28 27 26 25 25 24 24 27 33 37 37 37 37 36 38 40 38 38 41 41 41 40 39 39 39 37 37 35 32 32 32 29 27 25 22 21 18 17 16 16 18 20 22 23 22 20 18 17 17 15 16 20 16 11 10 15 17 11 15 20 18 12 12 13 11 9 11 15 15 15 15 14 12 12 12 12 11 12 11 9 9 7 8 7 4 3
31 30 29 28 27 26 25 24 23 25 31 36 37 38 37 36 38 40 38 38 40 41 42 42 40 40 39 39 38 33 31 34 34 31 30 27 24 23 21 19 18 18 20 20 20 20 19 19 18 18 19 16 16 19 23 23 21 28 26 14 14 17 15 14 13 12 13 13 13 15 17 16 15 14 14 14 14 14 13 14 14 12 11 10 9 9 6 5
31 31 30 28 27 27 26 24 22 24 28 34 37 37 37 36 36 39 39 38 39 40 41 41 41 41 39 39 38 33 33 36 35 34 32 29 27 25 23 21 20 20 20 19 19 17 16 19 20 19 19 21 18 17 18 25 24 30 28 18 12 13 16 20 18 18 17 15 15 14 16 18 16 14 16 15 14 15 15 15 15 13 13 13 11 11 8 6
32 31 31 29 27 28 27 24 22 23 27 32 36 37 37 36 35 38 38 38 38 37 38 40 40 41 39 39 38 36 36 37 37 36 33 30 29 27 25 24 23 22 21 20 19 18 17 19 22 22 21 22 23 18 21 21 20 21 20 25 16 12 18 21 19 22 20 13 14 14 17 20 18 16 18 17 15 17 17 15 15 15 14 14 13 13 11 8
32 31 31 30 28 28 27 24 23 24 26 30 34 36 36 34 35 37 37 37 36 34 39 40 38 38 38 38 37 37 38 38 37 37 35 33 32 29 27 26 24 23 22 21 21 20 17 17 20 23 24 22 24 24 25 25 22 17 14 19 22 17 16 15 15 21 20 13 15 15 16 20 21 19 19 20 19 19 19 16 15 16 15 15 16 16 14 11
33 32 31 31 29 27 28 25 23 25 26 27 31 34 34 33 34 35 35 35 33 34 39 39 36 36 35 37 39 38 38 38 37 38 37 36 34 31 29 28 26 26 25 23 24 23 21 22 23 22 25 22 22 25 26 25 21 16 13 15 17 26 21 17 17 22 21 16 17 17 16 19 22 22 20 22 22 21 21 19 17 17 16 16 17 18 18 15
33 32 31 31 30 27 27 27 24 25 25 25 29 33 33 32 33 34 33 32 30 34 38 36 36 34 34 40 41 38 37 37 37 39 37 36 35 33 32 31 29 27 26 25 25 22 23 25 23 22 24 23 24 27 23 24 20 17 18 18 17 26 22 20 18 17 19 18 17 16 18 22 22 21 20 20 21 22 22 19 18 18 17 17 18 18 19 19
33 33 31 31 31 27 27 27 25 25 24 24 29 31 32 32 32 32 32 31 29 32 36 35 33 30 33 42 40 36 38 38 38 38 37 37 37 36 33 31 30 28 27 26 25 23 23 23 19 22 24 24 27 27 23 25 20 13 21 18 11 17 18 22 24 16 18 20 18 16 19 23 22 21 21 21 21 21 20 20 19 19 19 19 19 20 19 19
34 33 31 30 31 28 26 28 26 25 24 25 28 30 31 32 32 31 32 33 28 27 32 34 32 30 33 38 35 34 38 39 39 40 40 39 38 38 36 33 32 31 28 27 27 24 22 22 23 26 27 27 29 28 23 23 20 13 18 18 10 19 21 25 29 21 20 23 21 19 19 22 22 22 22 20 19 20 19 19 19 19 20 21 20 20 20 19
34 34 31 30 31 28 26 28 27 24 24 25 27 29 30 31 32 31 32 31 25 27 32 31 31 34 34 33 30 32 38 39 40 42 43 41 40 40 39 38 36 35 33 30 28 24 17 21 24 25 27 28 26 23 18 16 16 19 22 19 17 21 20 21 25 22 22 22 20 17 16 19 21 20 20 18 19 24 23 18 19 22 22 22 20 19 21 20
34 34 31 30 30 28 27 29 27 25 25 26 28 30 30 31 33 33 31 26 23 29 32 27 31 36 33 32 30 30 36 39 39 43 44 42 42 42 40 39 36 34 34 31 27 25 18 23 28 24 26 26 21 18 18 17 19 23 22 19 19 19 17 17 18 20 21 19 16 14 16 21 23 21 19 16 13 20 25 20 21 24 23 22 20 20 22 22
35 35 32 30 29 29 29 28 27 26 26 27 29 30 31 33 35 33 27 22 20 23 23 22 29 33 32 33 32 30 34 36 38 43 43 41 42 41 39 38 36 35 33 30 28 28 26 28 34 27 27 27 23 20 23 26 30 32 26 20 19 19 19 18 16 17 18 17 15 12 15 21 20 19 17 11 10 18 25 25 24 23 22 20 18 19 22 24
35 35 32 30 29 29 30 28 27 28 27 28 30 31 33 35 35 29 25 24 17 11 12 15 22 29 32 32 32 33 33 32 36 41 40 41 43 41 39 39 37 35 32 28 29 30 29 32 33 26 27 30 28 27 27 28 31 33 27 19 17 19 19 16 13 13 13 14 14 12 16 19 17 19 19 14 13 17 17 17 18 18 19 19 19 22 24 26
36 35 32 30 29 29 30 28 28 29 28 29 31 33 36 35 32 27 26 27 19 10 11 15 16 23 28 29 30 33 32 29 32 40 41 40 42 42 41 40 36 35 32 26 27 28 26 27 26 23 28 31 27 28 23 25 25 25 22 22 20 19 17 17 15 14 13 13 14 14 18 21 18 20 22 20 21 20 15 17 21 25 27 27 26 27 26 26
36 35 32 30 29 29 30 29 29 30 29 31 33 35 36 32 29 25 23 24 21 17 18 18 17 19 24 26 29 31 30 27 29 38 40 40 41 41 41 40 36 36 35 27 26 27 21 21 24 23 26 30 26 27 23 23 22 20 19 19 22 18 17 20 18 16 17 16 17 16 16 19 19 19 18 17 23 24 19 21 27 32 35 33 29 27 26 26
36 35 32 31 30 29 30 30 30 30 31 33 35 35 33 29 27 25 23 21 19 24 23 18 21 23 21 25 28 29 30 28 28 34 35 37 41 41 40 39 36 38 39 29 24 23 17 16 23 25 22 23 23 26 24 21 21 20 18 11 15 18 19 21 19 18 19 16 17 17 15 16 19 20 20 19 23 26 23 23 26 31 34 32 30 28 25 22
37 35 33 32 31 30 30 31 31 31 32 34 35 33 31 28 26 26 26 20 15 23 24 17 22 24 21 24 26 27 30 30 29 31 31 33 39 39 39 39 35 38 38 30 23 21 16 16 22 29 24 21 23 25 28 24 25 24 16 9 12 18 19 22 21 20 19 17 17 16 15 16 18 22 25 25 26 26 26 25 22 25 29 28 28 28 24 21
37 35 34 33 31 30 31 32 31 31 33 35 34 31 28 26 25 27 31 24 16 25 27 21 21 23 22 25 25 25 31 33 29 30 30 31 35 36 37 37 34 36 35 32 31 24 20 19 21 30 27 18 22 26 28 28 28 31 24 16 17 21 20 21 22 18 17 16 15 12 11 15 17 20 24 27 26 23 24 23 17 17 22 24 24 24 25 25
36 35 35 34 31 30 32 33 32 33 33 33 30 27 26 25 24 28 33 28 19 26 31 26 22 20 21 25 25 24 29 32 29 28 31 30 31 32 34 34 32 34 35 36 36 28 22 23 22 28 29 21 24 28 25 26 26 29 30 21 18 21 18 18 20 18 15 16 15 11 10 16 21 22 24 27 27 25 26 28 25 21 23 25 24 22 24 26
36 36 37 34 31 31 33 34 33 33 32 30 28 27 26 27 27 28 32 28 18 24 32 29 23 21 21 25 27 26 28 32 29 29 31 30 29 29 31 32 31 30 34 40 39 27 20 21 23 26 28 25 27 30 25 26 25 25 29 25 19 18 17 17 18 19 16 15 15 11 10 18 24 24 27 30 29 28 30 31 32 30 28 25 23 22 22 23
36 37 38 35 32 32 33 34 33 32 31 28 27 27 27 28 31 33 35 30 20 22 31 33 30 28 27 29 30 29 29 31 30 30 30 28 28 27 26 30 32 29 31 39 37 27 20 22 23 26 25 21 25 28 27 26 28 25 28 27 22 20 19 19 18 18 16 13 13 13 15 21 25 24 29 32 29 29 32 34 34 35 32 25 21 22 21 21
37 38 38 35 32 32 33 33 32 31 30 27 26 27 28 29 32 37 38 30 22 20 24 32 38 35 33 34 32 29 30 31 31 30 29 28 28 26 23 26 30 27 27 34 33 27 28 26 23 25 24 18 23 27 24 25 28 28 29 29 25 22 20 21 21 21 18 15 16 17 17 23 29 28 30 31 28 28 34 36 34 33 32 27 22 23 22 24
37 38 38 34 31 32 33 32 31 30 28 26 27 28 29 31 32 37 38 32 26 23 21 28 40 39 34 37 38 33 30 31 31 29 28 28 28 26 24 25 28 30 29 33 33 31 33 31 27 28 27 23 26 27 22 25 28 30 29 26 25 23 20 20 21 23 22 19 20 19 19 27 34 32 32 31 29 29 30 31 31 30 29 27 24 24 25 26
38 38 37 34 32 33 34 31 30 30 28 27 28 27 28 30 31 35 40 39 35 31 22 23 35 40 36 36 41 39 34 34 31 28 28 30 27 27 28 26 28 34 34 32 33 34 35 32 30 32 33 29 27 26 23 23 27 25 26 28 25 25 24 21 20 24 25 22 22 23 24 30 35 33 31 31 30 29 28 30 31 29 27 25 23 23 25 27
38 38 36 34 33 34 34 31 30 31 31 31 31 29 28 28 27 32 41 43 40 37 29 21 27 37 40 39 42 43 40 41 36 24 25 30 28 26 29 28 26 32 37 37 35 34 33 35 34 33 33 31 26 24 21 21 24 26 25 32 32 27 26 26 25 27 27 26 27 28 27 29 32 32 30 29 30 30 29 30 30 27 26 26 25 24 25 27
38 39 37 35 35 36 35 32 31 32 33 32 31 31 30 27 24 30 41 43 40 38 34 26 21 30 36 38 44 47 44 45 42 25 21 29 29 27 29 30 30 33 39 40 37 35 34 34 32 31 32 31 30 26 22 20 25 27 25 27 31 30 28 29 29 28 29 30 31 31 28 28 31 33 30 27 27 25 25 27 26 23 25 27 28 28 28 28
40 41 40 37 36 38 38 34 33 33 33 33 32 31 32 29 28 31 35 37 39 39 37 29 23 29 33 31 38 47 44 44 44 29 20 27 31 30 32 35 35 36 39 37 33 36 38 31 25 29 34 33 32 34 30 22 24 27 24 23 26 28 28 30 30 29 30 33 32 30 30 28 30 32 29 25 23 21 23 26 24 21 23 26 28 30 32 32
41 41 39 38 36 35 37 36 37 36 35 36 35 33 32 32 33 33 31 30 34 39 40 33 27 35 37 28 34 45 46 48 49 37 30 33 35 34 36 38 36 34 37 39 30 32 39 35 30 33 35 29 25 30 33 27 24 27 25 23 24 27 28 29 30 29 31 32 31 32 35 34 32 33 32 30 29 27 28 29 25 23 26 28 29 30 32 34
41 39 36 38 37 33 33 36 37 36 34 36 38 36 33 30 29 30 30 28 29 34 41 39 33 38 38 28 31 41 45 51 53 45 40 42 40 38 37 39 40 37 37 41 34 31 36 40 37 34 30 25 24 30 36 34 29 28 27 24 24 27 29 29 28 28 29 29 30 34 39 39 36 35 37 37 36 37 37 32 26 26 28 29 28 29 31 34
42 39 35 38 40 36 34 37 38 37 36 38 40 39 35 30 28 28 30 30 29 32 37 39 38 40 37 30 31 38 43 50 53 48 46 46 44 41 35 34 40 39 36 39 39 36 37 41 41 36 31 32 33 32 31 30 29 30 29 27 28 31 31 29 28 28 29 30 34 38 41 39 34 35 37 37 35 38 39 34 29 29 31 30 28 29 32 34
41 39 36 37 40 38 36 38 39 38 37 37 38 38 34 31 30 32 34 35 34 35 37 39 42 45 42 38 40 42 45 50 51 48 47 46 44 40 34 31 33 34 33 36 38 38 37 38 41 38 34 37 38 29 22 27 35 36 31 29 32 31 29 28 28 28 31 34 36 38 38 37 36 38 41 39 36 36 35 33 31 32 33 33 32 32 33 33
Wind_Direction
236 233 230 227 224 222 221 221 221 221 221 220 220 219 218 219 218 216 212 208 209 210 213 219 235 321 21 28 33 32 39 53 72 117 153 170 167 163 159 153 150 146 147 153 160 162 160 164 159 138 123 120 120 101 95 91 88 79 64 55 22 324 104 288 276 267 214 120 113 95 91 142 141 142 134 132 130 119 119 118 111 109 116 117 97 89 87 85
240 236 234 231 228 225 223 221 221 221 221 221 221 221 220 220 220 219 214 210 209 207 210 211 217 241 352 12 24 23 30 42 57 103 153 167 167 162 159 158 151 147 148 152 157 160 161 161 161 152 128 127 124 98 98 92 72 79 73 73 47 350 163 222 261 257 223 222 83 54 269 240 238 165 145 149 143 135 131 124 119 123 132 124 96 89 85 83
245 241 237 235 232 229 225 223 222 221 221 222 221 221 221 222 222 220 218 214 210 208 209 208 212 218 260 340 9 14 20 33 44 65 128 157 167 162 161 161 156 153 152 155 158 160 165 163 157 153 141 143 123 48 38 84 61 60 65 102 223 86 211 219 244 255 220 283 11 318 289 272 259 197 160 165 147 142 142 134 132 142 140 113 93 92 86 82
250 247 242 238 235 233 230 226 223 222 221 222 222 221 220 222 223 222 221 218 213 211 208 207 209 210 223 277 336 357 11 27 37 49 105 147 165 162 161 162 161 156 153 158 160 161 162 162 150 141 148 130 108 340 282 99 66 39 89 179 211 138 219 249 223 268 304 318 332 326 308 262 259 244 171 169 158 144 139 144 146 157 136 107 92 91 87 82
250 250 248 243 239 236 233 230 227 223 222 222 222 221 219 220 223 223 222 221 217 214 210 208 207 208 215 234 270 322 3 26 33 39 95 137 161 163 161 163 163 157 156 157 157 159 151 159 144 118 107 108 111 287 301 89 87 209 200 171 156 163 194 223 207 267 302 269 296 300 286 259 263 244 198 236 180 141 129 144 145 148 118 101 96 92 94 91
250 249 250 249 245 239 236 233 231 227 224 223 222 222 219 219 222 223 222 222 221 217 213 210 207 207 210 220 238 267 329 10 27 35 80 130 155 164 163 162 164 160 159 156 156 161 149 157 143 109 94 94 114 264 35 339 207 149 224 163 119 215 204 220 226 240 246 231 240 242 293 289 296 312 200 221 144 126 127 138 135 139 108 98 100 90 99 98
252 249 248 249 249 245 240 236 233 231 228 225 223 223 220 219 221 222 222 221 222 221 217 213 208 207 208 214 223 240 266 298 9 33 71 127 147 163 166 160 164 162 161 159 154 161 155 155 149 117 95 84 131 161 112 258 219 193 247 180 142 208 208 231 219 198 197 225 249 280 304 294 296 315 283 102 109 118 125 131 136 141 118 99 85 76 88 83
255 252 249 247 247 248 246 241 236 233 231 229 226 224 222 220 220 221 220 220 221 221 220 217 211 208 208 212 216 228 245 255 338 24 51 123 143 160 166 161 165 165 163 162 158 161 159 156 151 113 91 90 143 163 200 208 191 237 250 230 190 193 218 206 172 169 180 232 295 324 295 273 260 270 261 91 107 121 118 125 129 124 110 96 67 46 44 41
257 254 251 249 246 246 247 245 241 236 233 231 229 227 224 222 221 220 220 218 220 221 222 219 215 210 207 210 214 223 233 240 265 7 29 110 145 159 167 168 166 169 168 165 165 161 158 157 144 111 102 116 162 196 234 211 216 246 242 233 205 193 212 172 152 174 178 213 341 327 259 248 225 234 221 138 132 121 116 128 118 106 97 84 63 34 16 15
262 256 253 251 248 246 245 245 245 241 237 233 230 229 227 224 222 221 220 217 218 220 222 221 218 213 208 210 212 218 221 225 241 304 14 94 148 158 167 174 170 174 173 168 167 161 161 153 126 113 125 137 195 210 229 198 227 245 225 215 188 178 185 154 149 169 187 193 27 311 214 221 227 243 214 144 149 123 109 116 102 100 98 87 81 52 20 11
274 261 255 251 249 248 246 244 244 244 241 236 232 230 229 228 224 223 221 217 217 218 221 221 219 215 210 211 210 213 218 220 232 243 333 66 153 163 168 176 177 177 174 172 171 171 175 156 127 135 148 105 150 184 191 190 241 241 208 214 189 170 162 150 172 180 213 226 179 301 234 225 231 260 248 164 144 120 111 105 86 95 110 97 92 72 41 39
289 273 260 253 250 248 247 245 243 242 243 240 236 232 231 230 226 225 222 219 217 217 220 220 220 218 211 212 207 208 215 214 220 221 248 287 162 173 172 175 181 179 177 176 178 184 190 168 143 147 146 99 125 194 220 201 253 230 203 211 189 170 168 167 198 185 209 250 293 316 262 230 233 266 259 261 28 106 119 110 85 91 109 90 80 80 74 72
295 287 271 258 251 248 247 246 245 242 241 241 239 236 233 231 229 227 224 220 218 217 219 219 220 218 214 212 207 210 217 211 213 216 221 239 187 181 178 179 181 179 181 180 181 185 192 187 157 149 153 138 147 195 210 200 222 211 187 191 185 179 184 191 205 194 212 254 305 316 280 258 258 263 261 269 306 55 110 110 95 88 87 76 68 72 79 81
294 292 285 269 255 249 246 245 245 244 242 239 239 238 235 233 231 228 226 222 219 218 217 218 219 218 216 211 206 211 216 212 214 215 213 220 210 191 186 183 180 181 185 186 183 175 184 202 179 158 148 132 153 216 217 212 208 183 172 188 189 187 198 191 219 227 217 232 288 291 264 273 280 262 256 258 259 299 284 116 100 96 81 74 69 62 76 78
292 292 290 282 265 252 246 245 244 244 244 241 238 236 235 235 233 230 228 224 221 219 217 217 217 217 216 211 208 212 213 209 211 214 215 213 209 203 192 185 181 182 185 185 182 177 185 196 187 173 144 125 169 239 236 218 192 178 188 190 178 182 213 228 271 261 231 248 283 264 264 270 273 268 271 263 262 284 282 172 116 116 93 71 69 57 68 70
289 290 289 287 278 261 248 244 243 243 243 243 240 236 233 234 235 232 229 225 222 220 218 216 215 216 215 210 211 216 213 210 208 208 213 214 210 208 200 190 181 181 185 184 186 186 187 182 178 186 162 144 160 177 216 220 182 194 198 179 187 192 216 242 273 274 249 278 293 265 275 275 269 285 290 283 275 288 301 310 108 133 124 81 63 52 56 52
285 287 288 287 284 274 256 245 242 242 242 243 242 239 233 231 233 233 231 227 223 221 219 217 215 215 214 209 212 214 210 210 211 207 210 215 213 212 210 199 183 181 187 186 190 190 187 183 185 190 178 169 153 143 198 228 185 201 199 171 204 203 205 234 259 258 248 275 290 278 275 268 280 312 301 291 285 287 304 325 333 319 156 112 67 46 32 30
283 284 285 286 285 281 268 251 243 241 242 242 242 242 237 231 229 231 231 228 224 222 220 217 214 214 213 211 213 213 209 209 210 207 210 214 213 212 210 203 188 184 185 183 188 190 191 190 187 193 183 180 172 156 194 233 181 196 252 184 206 211 209 229 239 242 252 256 264 273 277 279 296 312 306 292 292 292 288 292 311 316 309 279 94 72 30 15
282 281 281 283 284 283 276 261 247 241 240 241 241 241 240 234 229 228 230 229 225 222 221 218 215 215 215 216 216 215 211 207 207 207 209 211 212 211 210 207 193 188 188 184 186 190 195 195 189 196 186 183 192 175 180 229 208 250 337 247 210 214 216 225 223 235 253 247 250 264 273 282 291 301 303 294 290 290 283 278 288 307 298 266 245 91 49 12
281 280 279 279 281 283 280 269 253 243 240 240 240 241 241 237 232 227 226 227 225 222 222 219 216 216 215 215 216 215 212 207 205 206 207 210 212 212 212 213 201 194 192 186 188 192 198 200 196 197 187 187 196 172 169 200 225 281 334 286 220 222 223 234 224 229 246 248 262 269 267 273 280 289 287 287 285 283 286 286 286 294 287 268 262 266 55 29
279 279 278 277 278 280 280 275 261 247 241 240 240 240 241 238 236 230 224 223 224 223 222 220 217 216 214 214 214 213 211 208 207 205 205 209 211 212 212 212 210 202 193 188 191 197 201 200 198 196 187 191 184 155 165 184 197 260 305 277 236 247 255 255 231 229 237 229 243 254 260 267 275 283 278 282 286 282 286 285 281 281 282 281 274 271 301 353
277 277 277 276 276 276 278 277 268 252 243 240 240 240 240 239 238 235 226 222 223 221 221 221 219 219 217 216 217 214 209 208 208 205 205 209 210 211 212 212 212 205 197 195 196 200 203 197 195 195 186 192 187 166 172 184 181 221 241 239 232 249 271 259 231 238 236 229 237 246 255 260 264 273 276 279 282 280 282 277 272 272 274 274 271 272 280 303
274 275 275 275 275 274 274 275 273 259 245 240 240 239 240 239 239 237 231 225 223 220 219 219 219 220 219 218 218 214 212 212 208 205 206 208 210 210 210 211 208 205 204 204 203 202 202 197 193 193 186 188 204 198 183 184 208 216 210 218 223 229 250 237 233 261 261 259 261 258 261 260 260 266 270 272 272 273 275 274 270 268 271 268 266 269 273 290
272 273 273 273 274 273 272 273 274 264 249 242 240 239 240 239 239 239 234 228 225 221 219 219 219 220 220 220 218 212 214 215 210 207 205 205 210 211 209 210 206 207 209 207 206 200 195 199 194 194 199 188 197 234 208 182 211 221 193 186 218 226 234 237 251 281 286 270 253 254 257 256 260 263 262 262 263 268 269 271 270 265 266 267 263 261 262 276
270 270 271 271 272 272 271 271 273 267 253 244 240 239 239 239 239 239 235 232 228 224 220 218 219 220 220 222 219 213 214 214 211 210 205 204 210 211 208 210 207 207 211 207 206 199 190 200 196 193 203 187 176 216 235 203 209 231 191 164 182 233 244 246 263 282 291 274 231 238 252 256 264 261 259 259 257 265 264 261 265 264 265 263 258 257 254 258
269 268 269 269 269 269 270 269 270 267 256 246 241 239 240 240 240 239 237 233 229 226 222 217 218 220 221 223 220 217 216 214 212 211 207 204 208 209 208 210 209 207 209 206 206 199 192 216 215 198 195 189 181 195 221 216 198 217 221 178 174 194 224 245 265 270 276 262 240 259 263 256 265 264 263 267 262 260 259 256 261 263 264 263 260 261 256 249
268 267 267 268 268 267 268 267 266 266 259 249 243 241 241 242 241 239 237 234 230 229 225 219 217 217 219 222 219 218 219 216 213 212 209 206 207 207 207 208 208 209 207 203 208 201 192 214 225 210 192 190 205 208 211 211 187 179 227 243 201 176 194 236 249 258 264 252 253 275 269 257 273 277 268 267 262 257 255 254 259 262 265 269 268 269 266 257
267 266 265 266 266 264 265 264 263 264 260 250 243 240 240 241 241 238 236 234 231 230 228 221 218 216 218 220 217 215 218 217 216 214 210 209 208 206 207 208 205 209 209 202 208 208 196 202 219 221 194 185 214 218 207 200 182 170 197 230 217 182 195 221 215 242 263 257 257 259 255 257 269 274 268 264 260 256 258 258 260 264 268 275 276 271 268 266
267 265 263 264 265 263 262 261 259 261 259 248 241 239 239 239 239 238 235 230 227 230 231 224 218 217 221 222 216 214 216 215 216 215 211 211 211 206 207 210 204 205 211 206 203 209 208 200 214 230 204 193 213 211 204 197 178 187 199 189 209 220 224 211 198 220 244 247 250 237 242 253 253 262 270 268 261 260 265 264 262 266 268 271 275 272 267 268
267 264 262 262 264 261 258 257 256 257 256 246 239 239 239 238 237 235 234 229 223 230 234 226 220 218 222 223 217 214 216 214 215 215 211 211 213 208 206 208 203 200 206 209 203 201 213 210 210 224 211 202 213 205 202 197 167 187 202 156 172 242 238 209 203 218 232 239 247 237 242 253 256 268 277 278 280 276 265 254 259 272 271 262 262 269 271 269
266 264 261 260 262 261 256 253 253 253 250 241 237 237 236 237 235 231 232 228 219 229 234 226 222 221 220 221 216 213 216 214 215 216 212 210 212 210 208 206 203 201 201 208 206 191 205 230 219 217 209 201 209 203 191 186 174 194 200 170 183 226 233 216 213 226 236 242 247 242 246 256 265 275 280 291 302 295 281 259 263 280 276 261 256 264 271 270
263 262 261 258 260 260 253 249 249 248 245 237 235 236 234 234 233 229 229 223 216 230 236 231 228 224 222 222 216 212 216 215 216 218 214 212 214 212 210 210 207 206 205 205 201 179 183 237 237 219 206 196 194 199 189 189 209 214 205 197 202 216 229 221 220 235 242 244 249 246 242 252 270 279 277 286 295 288 284 275 273 278 272 264 260 260 267 270
259 260 260 257 258 259 251 246 244 243 241 235 233 234 232 232 231 228 223 214 216 231 238 244 241 231 225 225 220 214 216 216 217 221 218 214 216 216 213 213 211 209 209 201 192 179 178 217 233 221 207 198 185 198 208 199 207 216 207 198 200 208 223 224 222 236 243 251 262 261 243 243 259 267 264 276 276 265 270 281 289 284 273 269 263 260 269 275
256 257 258 256 257 256 250 243 240 240 238 233 232 232 232 232 229 225 215 203 202 213 221 242 249 240 231 226 223 220 216 217 220 223 222 218 217 217 213 213 213 208 206 199 194 193 194 208 223 217 205 207 193 191 215 213 209 219 209 190 200 211 220 229 235 247 252 259 267 268 258 250 247 246 241 235 244 250 253 272 286 275 269 278 278 274 277 279
253 254 255 255 255 253 248 242 236 237 236 232 232 231 231 232 226 221 212 196 179 174 211 223 231 242 238 224 222 225 216 212 223 223 220 220 218 217 216 213 212 206 196 195 200 204 212 220 228 217 203 216 207 177 199 223 218 227 212 184 202 227 242 246 239 244 249 251 253 241 240 247 242 239 240 231 236 248 243 242 255 260 267 278 282 282 282 279
249 250 252 252 254 251 246 241 236 235 234 231 232 231 232 231 223 217 208 193 181 191 221 228 216 228 240 224 215 223 216 203 221 229 221 219 219 217 219 215 211 207 193 192 205 203 209 228 240 230 205 219 216 172 186 223 210 227 236 196 192 212 242 255 247 244 242 241 250 243 231 246 257 260 261 250 248 259 259 249 254 260 266 275 278 278 280 279
247 247 249 249 251 248 242 239 236 235 233 232 233 232 233 230 221 212 196 188 194 197 203 223 220 213 224 226 213 213 215 200 211 232 226 221 221 216 219 218 211 209 201 193 204 208 206 219 244 252 230 230 227 183 188 218 194 206 248 232 201 204 215 231 240 248 249 246 253 255 243 249 268 276 268 258 260 269 269 258 254 255 259 269 275 276 277 275
245 244 245 246 248 245 240 238 236 235 233 233 233 232 232 225 218 209 188 180 207 201 191 210 227 218 212 220 216 209 213 207 208 227 227 221 223 217 216 219 210 210 208 189 189 221 229 213 234 254 251 252 244 198 186 203 190 188 217 241 228 226 223 223 226 231 236 243 247 246 243 244 254 263 261 260 268 275 272 264 260 261 262 262 267 274 275 270
243 243 243 244 246 243 238 236 236 235 234 233 232 231 231 225 216 206 187 179 209 213 199 194 211 222 211 208 216 212 213 215 212 224 227 220 224 219 215 220 212 207 205 180 176 208 217 193 215 242 243 241 240 216 196 203 198 184 193 224 227 219 226 237 240 234 219 228 246 247 249 249 245 252 262 266 265 264 266 270 274 280 278 270 264 269 275 275
241 242 243 241 243 241 237 235 235 236 235 234 234 230 230 224 214 206 194 186 202 213 200 182 186 212 208 200 210 213 217 223 216 222 231 224 224 225 218 218 214 204 196 181 182 197 192 178 194 224 229 216 222 231 216 206 208 194 194 212 216 204 212 233 249 252 226 214 229 238 247 251 245 244 255 262 260 259 263 270 275 283 288 284 273 267 271 277
240 243 243 238 238 239 236 234 235 237 237 235 233 229 226 220 208 201 196 193 207 214 199 185 188 205 202 198 205 207 219 230 219 216 231 227 220 225 221 216 211 205 196 187 184 182 183 199 205 214 225 214 215 239 233 203 205 215 211 204 195 202 214 219 230 243 235 215 212 220 241 254 254 252 257 262 264 265 267 270 276 281 284 284 279 273 271 275
240 243 240 234 234 236 235 233 233 235 236 233 231 229 225 221 209 198 195 199 214 219 205 198 199 197 189 189 197 199 211 228 222 212 223 229 221 218 222 218 206 202 203 194 182 171 185 218 223 217 223 213 210 233 238 208 195 213 226 215 200 207 215 215 225 237 240 228 222 226 235 248 255 255 257 261 262 266 270 275 280 283 281 279 277 276 276 279
241 243 239 232 233 236 235 234 233 234 235 231 229 228 224 221 214 204 200 203 212 217 215 208 200 192 183 179 184 193 206 221 227 215 211 225 225 211 215 222 204 196 207 202 191 189 196 203 207 211 219 216 210 222 237 227 206 203 221 229 225 222 217 217 226 236 240 235 231 233 234 246 253 251 252 257 260 265 270 270 271 276 279 280 280 281 283 284
242 244 239 231 229 234 235 233 233 233 233 231 228 227 224 220 218 210 205 209 213 214 222 214 200 195 189 180 176 183 198 215 230 230 215 218 225 211 211 222 202 192 208 211 205 207 205 197 193 200 210 215 213 214 225 236 224 204 205 228 244 242 234 229 227 231 235 231 230 231 228 240 249 250 253 256 256 258 263 266 268 271 275 277 276 279 281 281
243 244 238 228 224 229 232 230 230 229 228 228 225 226 225 221 220 218 214 215 212 206 212 216 205 199 195 189 180 177 187 202 218 236 227 215 219 214 211 219 207 195 204 212 212 214 215 212 206 203 205 209 215 216 212 224 238 226 202 208 230 241 243 243 235 233 235 230 228 226 223 236 246 250 252 255 255 256 259 266 273 276 277 278 276 277 279 280
242 243 236 226 221 225 229 227 226 225 223 222 220 219 218 216 221 228 224 221 217 213 207 204 208 205 199 196 187 179 185 191 193 214 225 212 213 214 210 217 219 205 202 207 209 208 215 223 222 217 212 205 210 226 219 209 229 241 222 204 206 216 229 237 236 237 242 245 245 243 243 250 254 254 255 257 259 263 261 260 264 267 272 277 278 279 279 280
240 242 233 222 217 219 222 223 224 225 225 225 222 218 213 208 217 233 232 224 221 221 208 192 203 214 209 205 196 185 186 187 180 187 214 208 206 214 212 212 219 216 207 208 212 207 207 217 221 227 228 211 201 216 225 213 215 228 235 222 212 209 213 223 232 236 242 248 252 254 261 268 266 260 260 259 259 265 267 263 257 253 259 270 279 283 282 279
239 244 237 223 216 215 215 216 219 222 224 225 226 222 218 213 214 226 234 229 222 222 214 206 210 209 207 217 209 193 187 187 181 179 197 200 201 213 215 209 215 220 207 202 216 218 210 210 218 229 235 226 208 202 205 217 227 228 232 233 230 228 220 217 225 231 238 245 249 252 256 262 264 262 261 260 257 257 261 264 266 263 263 273 282 288 289 286
238 245 241 227 220 219 218 215 215 218 220 222 224 224 223 222 220 221 227 229 225 221 217 218 215 199 197 213 216 201 193 190 186 184 190 193 197 210 213 206 211 222 210 197 209 223 213 209 218 224 227 234 230 213 203 210 229 233 234 235 237 240 239 233 229 229 236 244 250 254 255 254 254 256 259 261 257 253 256 264 275 279 276 279 284 287 291 293
237 243 242 228 220 221 222 219 218 218 218 221 224 223 220 219 220 221 221 224 225 220 217 219 214 204 202 211 221 215 206 197 193 194 192 188 193 206 210 206 209 218 218 210 213 225 219 214 216 217 218 224 232 228 219 214 217 226 234 238 240 242 246 247 243 237 238 243 246 251 254 254 254 256 256 256 256 257 258 262 269 275 278 283 286 288 291 295
237 241 242 230 219 216 217 217 219 219 218 222 224 222 221 219 216 214 214 219 221 216 216 217 214 211 207 209 221 224 217 207 203 204 199 189 193 206 208 206 209 213 220 223 224 228 227 223 222 223 226 224 221 227 232 228 228 234 233 233 236 236 236 239 243 245 245 245 245 246 249 253 258 260 256 254 255 256 255 257 263 270 276 280 281 284 289 293
237 240 242 232 219 216 216 215 217 219 220 224 228 226 225 225 222 217 213 218 222 219 216 215 213 211 206 206 216 221 220 215 210 210 210 198 194 204 208 207 207 206 214 224 223 221 224 227 225 225 232 232 225 226 238 240 238 236 232 233 236 236 235 237 242 247 250 249 249 250 250 249 248 251 254 255 255 256 258 261 264 268 275 279 282 287 290 292